TimeEDT,TemperatureF,Dew PointF,Humidity,Sea Level PressureIn,VisibilityMPH,Wind Direction,Wind SpeedMPH,Gust SpeedMPH,PrecipitationIn,Events,Conditions,WindDirDegrees,DateUTC
12:15 AM,63.5,55.6,75,29.98,10.0,ESE,5.8,-,N/A,,Overcast,120,2013-07-22 04:15:00
12:34 AM,63.5,56.7,78,30.00,10.0,SSE,3.5,-,N/A,Rain,Rain,150,2013-07-22 04:34:00
12:55 AM,61.2,58.3,90,29.99,10.0,East,4.6,-,N/A,Rain,Light Rain,100,2013-07-22 04:55:00
1:15 AM,61.0,59.4,94,29.98,10.0,East,4.6,-,N/A,,Scattered Clouds,100,2013-07-22 05:15:00
1:34 AM,60.8,59.0,94,29.98,10.0,ESE,4.6,-,N/A,,Scattered Clouds,110,2013-07-22 05:34:00
1:55 AM,59.9,58.5,95,29.98,10.0,ESE,4.6,-,N/A,,Mostly Cloudy,110,2013-07-22 05:55:00
2:15 AM,59.7,58.6,96,29.97,10.0,ESE,3.5,-,N/A,,Scattered Clouds,120,2013-07-22 06:15:00
2:34 AM,59.9,59.0,97,29.97,10.0,Calm,Calm,-,N/A,,Mostly Cloudy,0,2013-07-22 06:34:00
2:55 AM,59.9,59.2,97,29.96,10.0,Calm,Calm,-,N/A,,Overcast,0,2013-07-22 06:55:00
3:15 AM,59.2,59.0,99,29.96,10.0,Calm,Calm,-,N/A,,Mostly Cloudy,0,2013-07-22 07:15:00
3:34 AM,59.2,59.0,99,29.96,10.0,Calm,Calm,-,N/A,,Clear,0,2013-07-22 07:34:00
3:55 AM,58.5,58.5,100,29.96,10.0,Calm,Calm,-,N/A,,Clear,0,2013-07-22 07:55:00
4:15 AM,58.5,58.5,100,29.95,10.0,Calm,Calm,-,N/A,,Clear,0,2013-07-22 08:15:00
4:34 AM,56.5,56.5,100,29.94,7.0,Calm,Calm,-,N/A,,Clear,0,2013-07-22 08:34:00
4:55 AM,58.5,58.5,100,29.93,10.0,ESE,3.5,-,N/A,,Clear,110,2013-07-22 08:55:00
5:15 AM,56.7,56.7,100,29.93,10.0,Calm,Calm,-,N/A,,Clear,0,2013-07-22 09:15:00
5:34 AM,57.4,57.4,100,29.93,10.0,Calm,Calm,-,N/A,,Clear,0,2013-07-22 09:34:00
5:55 AM,55.8,55.8,100,29.93,10.0,Calm,Calm,-,N/A,,Clear,0,2013-07-22 09:55:00
6:14 AM,55.9,55.9,100,29.93,10.0,Calm,Calm,-,N/A,,Clear,0,2013-07-22 10:14:00
6:34 AM,54.0,54.0,100,29.92,1.2,Calm,Calm,-,N/A,,Mist,0,2013-07-22 10:34:00
6:55 AM,55.9,55.9,100,29.92,7.0,Calm,Calm,-,N/A,,Clear,0,2013-07-22 10:55:00
7:14 AM,58.5,58.5,100,29.92,10.0,Calm,Calm,-,N/A,,Clear,0,2013-07-22 11:14:00
7:34 AM,59.7,59.5,99,29.91,10.0,Calm,Calm,-,N/A,,Clear,0,2013-07-22 11:34:00
7:55 AM,62.6,61.5,96,29.91,10.0,Calm,Calm,-,N/A,,Clear,0,2013-07-22 11:55:00
8:14 AM,65.7,63.1,92,29.91,10.0,SSE,3.5,-,N/A,,Clear,160,2013-07-22 12:14:00
8:35 AM,68.5,64.0,85,29.91,10.0,SSE,4.6,-,N/A,,Clear,160,2013-07-22 12:35:00
8:55 AM,68.5,63.0,82,29.90,10.0,SSE,4.6,-,N/A,,Clear,150,2013-07-22 12:55:00
9:14 AM,68.5,61.7,79,29.90,10.0,South,4.6,-,N/A,,Clear,170,2013-07-22 13:14:00
9:35 AM,71.4,64.0,77,29.91,10.0,South,6.9,-,N/A,,Clear,180,2013-07-22 13:35:00
9:55 AM,73.6,66.0,77,29.90,10.0,South,8.1,-,N/A,,Scattered Clouds,180,2013-07-22 13:55:00
10:14 AM,73.6,65.3,75,29.91,10.0,South,6.9,-,N/A,,Scattered Clouds,170,2013-07-22 14:14:00
10:35 AM,73.6,63.9,72,29.89,10.0,SSE,5.8,-,N/A,,Scattered Clouds,160,2013-07-22 14:35:00
10:55 AM,75.0,63.1,66,29.88,10.0,SSW,6.9,-,N/A,,Scattered Clouds,210,2013-07-22 14:55:00
11:14 AM,75.9,63.3,65,29.88,10.0,South,9.2,-,N/A,,Scattered Clouds,190,2013-07-22 15:14:00
11:35 AM,76.1,63.1,64,29.89,10.0,South,11.5,-,N/A,,Mostly Cloudy,180,2013-07-22 15:35:00
11:55 AM,78.8,64.0,60,29.88,10.0,South,9.2,-,N/A,,Mostly Cloudy,170,2013-07-22 15:55:00
12:14 PM,78.4,63.7,60,29.87,10.0,SSW,6.9,-,N/A,,Mostly Cloudy,200,2013-07-22 16:14:00
12:35 PM,78.8,62.1,56,29.86,10.0,WSW,9.2,-,N/A,,Scattered Clouds,240,2013-07-22 16:35:00
12:54 PM,78.8,62.4,57,29.86,10.0,SSW,8.1,-,N/A,,Scattered Clouds,210,2013-07-22 16:54:00
1:14 PM,79.2,61.3,54,29.86,10.0,South,9.2,-,N/A,,Mostly Cloudy,180,2013-07-22 17:14:00
1:35 PM,79.0,61.7,55,29.85,10.0,SW,9.2,-,N/A,,Scattered Clouds,230,2013-07-22 17:35:00
1:54 PM,80.2,62.2,54,29.85,10.0,SSE,11.5,-,N/A,,Scattered Clouds,150,2013-07-22 17:54:00
2:14 PM,81.5,61.0,50,29.84,10.0,SSW,9.2,17.3,N/A,,Scattered Clouds,200,2013-07-22 18:14:00
2:35 PM,84.7,63.0,48,29.83,10.0,SSW,8.1,-,N/A,,Scattered Clouds,210,2013-07-22 18:35:00
2:54 PM,82.4,61.3,49,29.83,10.0,South,11.5,18.4,N/A,,Mostly Cloudy,170,2013-07-22 18:54:00
3:14 PM,81.7,59.7,47,29.81,10.0,South,15.0,19.6,N/A,,Mostly Cloudy,180,2013-07-22 19:14:00
3:35 PM,85.3,62.6,46,29.81,10.0,South,10.4,16.1,N/A,,Scattered Clouds,170,2013-07-22 19:35:00
3:54 PM,83.7,62.4,49,29.80,10.0,South,13.8,19.6,N/A,,Mostly Cloudy,180,2013-07-22 19:54:00
4:14 PM,82.6,60.8,48,29.79,10.0,South,11.5,17.3,N/A,,Mostly Cloudy,190,2013-07-22 20:14:00
4:35 PM,81.5,61.7,51,29.79,10.0,SSW,5.8,-,N/A,,Mostly Cloudy,200,2013-07-22 20:35:00
4:55 PM,82.8,61.5,49,29.78,10.0,South,10.4,20.7,N/A,,Mostly Cloudy,180,2013-07-22 20:55:00
5:15 PM,81.5,61.2,50,29.78,10.0,SSW,8.1,17.3,N/A,,Mostly Cloudy,200,2013-07-22 21:15:00
5:34 PM,83.7,61.5,47,29.76,10.0,SSW,9.2,17.3,N/A,,Scattered Clouds,210,2013-07-22 21:34:00
5:55 PM,83.3,61.0,47,29.76,10.0,South,11.5,17.3,N/A,,Scattered Clouds,190,2013-07-22 21:55:00
6:15 PM,82.0,59.7,47,29.75,10.0,SW,9.2,-,N/A,,Scattered Clouds,220,2013-07-22 22:15:00
6:34 PM,82.9,60.1,46,29.75,10.0,SSW,9.2,18.4,N/A,,Scattered Clouds,200,2013-07-22 22:34:00
6:55 PM,81.3,59.2,47,29.74,10.0,South,10.4,18.4,N/A,,Clear,190,2013-07-22 22:55:00
7:14 PM,81.1,60.1,49,29.74,10.0,SSW,8.1,-,N/A,,Scattered Clouds,200,2013-07-22 23:14:00
7:34 PM,80.2,60.4,51,29.74,10.0,SSW,5.8,-,N/A,,Scattered Clouds,200,2013-07-22 23:34:00
7:55 PM,80.1,60.6,51,29.75,10.0,SSW,5.8,-,N/A,,Clear,200,2013-07-22 23:55:00
8:14 PM,79.9,61.3,53,29.75,10.0,SSW,8.1,-,N/A,,Clear,210,2013-07-23 00:14:00
8:34 PM,78.8,61.7,56,29.75,10.0,SSW,6.9,-,N/A,,Clear,200,2013-07-23 00:34:00
8:55 PM,78.8,63.1,59,29.75,10.0,South,5.8,-,N/A,,Clear,190,2013-07-23 00:55:00
9:14 PM,76.3,62.6,62,29.74,10.0,SSW,4.6,-,N/A,,Clear,200,2013-07-23 01:14:00
9:35 PM,76.1,63.5,65,29.74,10.0,South,4.6,-,N/A,,Clear,190,2013-07-23 01:35:00
9:55 PM,76.1,64.0,66,29.75,10.0,SSW,4.6,-,N/A,,Scattered Clouds,210,2013-07-23 01:55:00
10:14 PM,76.1,63.5,65,29.74,10.0,South,6.9,-,N/A,,Clear,190,2013-07-23 02:14:00
10:35 PM,74.3,62.4,66,29.74,10.0,SSW,4.6,-,N/A,,Clear,210,2013-07-23 02:35:00
10:55 PM,73.6,62.1,67,29.75,10.0,SSW,4.6,-,N/A,,Scattered Clouds,210,2013-07-23 02:55:00
11:14 PM,74.5,62.4,66,29.74,10.0,SW,5.8,-,N/A,,Scattered Clouds,220,2013-07-23 03:14:00
11:35 PM,74.7,62.2,65,29.74,10.0,SW,4.6,-,N/A,,Scattered Clouds,230,2013-07-23 03:35:00
11:55 PM,73.8,61.7,66,29.75,10.0,SW,6.9,-,N/A,,Scattered Clouds,230,2013-07-23 03:55:00